Weather History for Riverside March, CA

Change the Weather History Date:

Saturday, February 2, 2013

  Actual Average Record
Temperature  
Mean Temperature 58 °F -  
Max Temperature 74 °F 63 °F 77 °F (2000)
Min Temperature 43 °F 39 °F 29 °F (2014)
Degree Days  
Heating Degree Days 6    
Growing Degree Days 8 (Base 50)    
Moisture  
Dew Point 44 °F    
Average Humidity 60    
Maximum Humidity 88    
Minimum Humidity 27    
Precipitation  
Precipitation 0.00 in - - ()
Sea Level Pressure  
Sea Level Pressure 30.17 in    
Wind  
Wind Speed 2 mph (NW)    
Max Wind Speed 10 mph    
Max Gust Speed -    
Visibility 10 miles    
Events      
Averages and records for this station are not official NWS values.
T = Trace of Precipitation, MM = Missing Value Source: NWS Daily Summary

Daily Weather History Graph

Daily Weather History Graph

Search for Another Location

Airport:

Trip Planner

Search our weather history database for the weather conditions in past years. The results will help you decide how hot, cold, wet, or windy it might be!

Date:

Astronomy

Feb. 02, 2013 Rise Set
Actual Time 6:44 AM PST 5:21 PM PST
Civil Twilight 6:18 AM PST 5:47 PM PST
Nautical Twilight 5:48 AM PST 6:17 PM PST
Astronomical Twilight 5:19 AM PST 6:46 PM PST
Moon No Moon Rise 10:20 AM PST (2/2)
Length of Visible Light 11h 28m
Length of Day
10h 36m
Waning Gibbous, 58% of the Moon is Illuminated
Feb 2
Waning Gibbous
Feb 3
Last Quarter
Feb 9
New
Feb 17
First Quarter
Feb 25
Full

Hourly Weather History & Observations

Time (PST) Temp. Dew Point Humidity Pressure Visibility Wind Dir Wind Speed Gust Speed Precip Events Conditions
12:58 AM 50.0 °F 40.3 °F 69% 30.19 in 10.0 mi Calm Calm - N/A   Clear
1:58 AM 46.0 °F 40.3 °F 80% 30.18 in 10.0 mi West 2.3 mph - N/A   Clear
2:58 AM 49.8 °F 41.9 °F 74% 30.17 in 10.0 mi SSE 2.3 mph - N/A   Clear
3:58 AM 48.9 °F 42.4 °F 78% 30.17 in 10.0 mi Calm Calm - N/A   Clear
4:58 AM 46.6 °F 42.4 °F 85% 30.17 in 10.0 mi NNE 1.2 mph - N/A   Clear
5:58 AM 45.3 °F 41.2 °F 85% 30.19 in 10.0 mi Calm Calm - N/A   Clear
6:58 AM 43.5 °F 40.1 °F 88% 30.22 in 10.0 mi Calm Calm - N/A   Clear
7:58 AM 48.4 °F 44.4 °F 86% 30.22 in 10.0 mi Calm Calm - N/A   Clear
8:58 AM 58.8 °F 46.9 °F 65% 30.23 in 10.0 mi Calm Calm - N/A   Overcast
9:58 AM 63.3 °F 44.2 °F 50% 30.22 in 10.0 mi Calm Calm - N/A   Mostly Cloudy
10:58 AM 67.5 °F 42.1 °F 40% 30.20 in 10.0 mi Calm Calm - N/A   Mostly Cloudy
11:58 AM 70.9 °F 42.8 °F 36% 30.18 in 10.0 mi Variable 1.2 mph - N/A   Mostly Cloudy
12:58 PM 71.8 °F 40.8 °F 33% 30.15 in 10.0 mi Calm Calm - N/A   Mostly Cloudy
1:58 PM 74.3 °F 37.9 °F 27% 30.12 in 10.0 mi NE 8.1 mph - N/A   Mostly Cloudy
2:58 PM 71.1 °F 47.8 °F 44% 30.12 in 10.0 mi NW 5.8 mph - N/A   Scattered Clouds
3:58 PM 69.6 °F 44.8 °F 41% 30.12 in 10.0 mi North 6.9 mph - N/A   Partly Cloudy
4:58 PM 67.5 °F 40.6 °F 38% 30.13 in 10.0 mi NNW 10.4 mph - N/A   Mostly Cloudy
5:58 PM 64.9 °F 39.2 °F 39% 30.14 in 10.0 mi WNW 3.5 mph - N/A   Overcast
6:58 PM 63.0 °F 42.3 °F 47% 30.17 in 10.0 mi WNW 4.6 mph - N/A   Mostly Cloudy
7:58 PM 60.8 °F 48.4 °F 64% 30.17 in 10.0 mi North 5.8 mph - N/A   Scattered Clouds
8:58 PM 58.5 °F 48.0 °F 68% 30.16 in 10.0 mi Calm Calm - N/A   Mostly Cloudy
9:58 PM 58.5 °F 49.1 °F 71% 30.14 in 10.0 mi SW 2.3 mph - N/A   Overcast
10:58 PM 57.6 °F 48.9 °F 73% 30.14 in 10.0 mi West 4.6 mph - N/A   Mostly Cloudy
11:58 PM 58.3 °F 48.9 °F 71% 30.14 in 10.0 mi NNE 4.6 mph - N/A   Clear